sat.trackr.live / text

‹ back to catalog

TACSAT 6

NORAD 39473 · 2013-072M

PAYLOAD ACTIVE UNKNOWN

§ Identity

Operator
Country
US
Launch date
2013-12-06
Launch site
AFWTR
Launch vehicle
Mass (kg)
RCS (m²)

External: N2YO · Heavens-Above · Gunter

§ Orbital elements

Epoch: 2026-09-20T00:31:02.392608Z

Period
88.67 min
Inclination
120.4369°
Eccentricity
0.0007409
Mean motion
16.24044687 rev/d
Perigee alt
203.7 km
Apogee alt
213.5 km
Semi-major
6,586.7 km
B*
1.2005e-3
RAAN
176.7071°
Arg perigee
137.8604°
Mean anomaly
222.3088°
Rev number
13,435

§ Raw data

TACSAT 61 39473U 13072M   26263.02155547  .03280919  13712-4  12005-2 0  99972 39473 120.4369 176.7071 0007409 137.8604 222.3088 16.24044687134354

JSON: /api/v1/satellites/39473 · /tle

For live sub-satellite position, see the globe view (requires WebGL).

§ Visibility from observer

Set your observer location to see the next 7 days of passes ≥ 10°. The values pass through the URL so the page stays shareable.

No JS? Fill the form by hand. The geolocation button needs JavaScript.